GW4345 Weather Reports


time (UTC)temp
C
wind
direction
speed
KPH
gust
KPH
rain 1hr
cm
rain 24hr
cm
rain mn
cm
humidity
%
barometer
mb
20260506014012 10 37 3.2 19.3 0.00 0.00 0.00 78 1014.1
20260506012505 10 47 4.8 16.1 0.00 0.00 0.00 78 1014.2
20260506012012 10 53 6.4 19.3 0.00 0.00 0.00 78 1014.2
20260506011505 10 60 3.2 8.0 0.00 0.00 0.00 78 1014.2
20260506011012 10 46 4.8 12.9 0.00 0.00 0.00 78 1014.2
20260506010506 10 64 3.2 8.0 0.00 0.00 0.00 78 1014.1
20260506010005 10 60 3.2 14.5 0.00 0.00 0.00 78 1014.1
20260506005505 10 54 4.8 16.1 0.00 0.00 0.00 77 1014.1
20260506005012 10 54 3.2 4.8 0.00 0.00 0.00 77 1014.1
20260506004012 10 67 3.2 8.0 0.00 0.00 0.00 77 1014.2
20260506003505 10 58 3.2 8.0 0.00 0.00 0.00 76 1014.1
20260506002505 10 64 6.4 14.5 0.00 0.00 0.00 75 1014.3
20260506001505 10 66 3.2 9.7 0.00 0.00 0.00 75 1014.3
20260506001012 10 67 4.8 29.0 0.00 0.00 0.00 75 1014.2
20260506000505 10 70 3.2 16.1 0.00 0.00 0.00 75 1014.3
20260505235505 10 72 8.0 19.3 0.00 0.00 0.00 74 1014.2
20260505235012 10 67 4.8 19.3 0.00 0.00 0.00 75 1014.2
20260505234505 10 76 6.4 16.1 0.00 0.00 0.00 74 1014.2
20260505234012 10 36 1.6 12.9 0.00 0.00 0.00 74 1014.2
20260505233505 10 60 4.8 12.9 0.00 0.00 0.00 74 1014.2
20260505233012 10 69 3.2 9.7 0.00 0.00 0.00 74 1014.2
20260505232504 10 63 4.8 16.1 0.00 0.00 0.00 74 1014.3
20260505231505 10 60 8.0 11.3 0.00 0.00 0.00 74 1014.3
20260505231012 11 62 4.8 12.9 0.00 0.00 0.00 74 1014.3
20260505230005 11 62 6.4 19.3 0.00 0.00 0.00 73 1014.3
20260505225505 11 54 4.8 12.9 0.00 0.00 0.00 72 1014.3
20260505225012 11 98 6.4 16.1 0.00 0.00 0.00 72 1014.3
20260505224505 11 51 3.2 8.0 0.00 0.00 0.00 72 1014.3
20260505224012 11 68 4.8 20.9 0.00 0.00 0.00 72 1014.3
20260505223505 11 93 6.4 24.1 0.00 0.00 0.00 72 1014.3
20260505223012 11 54 4.8 14.5 0.00 0.00 0.00 71 1014.3
20260505221012 11 39 3.2 8.0 0.00 0.00 0.00 79 1014.4
20260505220505 11 89 3.2 12.9 0.00 0.00 0.00 78 1014.3
20260505215505 11 104 1.6 9.7 0.00 0.00 0.00 78 1014.3
20260505215012 11 84 4.8 9.7 0.00 0.00 0.00 77 1014.2
20260505214504 11 102 1.6 12.9 0.00 0.00 0.00 77 1014.2
20260505214011 11 124 8.0 14.5 0.00 0.00 0.00 76 1014.1
20260505213505 11 115 6.4 19.3 0.00 0.00 0.00 75 1014.1
20260505213011 11 106 8.0 19.3 0.00 0.00 0.00 75 1014.0
20260505212505 11 115 11.3 20.9 0.00 0.00 0.00 74 1013.9
20260505211505 12 96 14.5 25.7 0.00 0.00 0.00 74 1013.9
20260505211012 12 106 14.5 22.5 0.00 0.00 0.00 75 1013.9
20260505210505 12 106 9.7 27.4 0.00 0.00 0.00 75 1013.9
20260505205504 12 92 19.3 29.0 0.00 0.00 0.00 72 1013.9
20260505205012 12 90 9.7 25.7 0.00 0.00 0.00 70 1013.9
20260505204012 12 91 12.9 22.5 0.00 0.00 0.00 65 1013.8
20260505203011 13 98 6.4 16.1 0.00 0.00 0.00 66 1013.7
20260505202504 13 114 6.4 19.3 0.00 0.00 0.00 66 1013.6
20260505202012 13 99 6.4 19.3 0.00 0.00 0.00 67 1013.7
20260505201505 13 98 9.7 16.1 0.00 0.00 0.00 67 1013.6
20260505201012 13 101 6.4 11.3 0.00 0.00 0.00 68 1013.6
20260505200505 13 112 6.4 12.9 0.00 0.00 0.00 67 1013.5
20260505200005 13 89 4.8 11.3 0.00 0.00 0.00 67 1013.4
20260505195011 13 97 4.8 9.7 0.00 0.00 0.00 66 1013.3
20260505194505 13 113 4.8 11.3 0.00 0.00 0.00 66 1013.3
20260505194012 13 71 3.2 12.9 0.00 0.00 0.00 66 1013.2
20260505193505 13 99 6.4 16.1 0.00 0.00 0.00 65 1013.1
20260505193012 13 90 8.0 14.5 0.00 0.00 0.00 65 1013.0
20260505192505 13 109 6.4 16.1 0.00 0.00 0.00 65 1013.0
20260505192011 13 118 8.0 19.3 0.00 0.00 0.00 65 1013.0
20260505191504 13 92 9.7 22.5 0.00 0.00 0.00 64 1013.0
20260505190005 14 97 0.0 3.2 0.00 0.00 0.00 64 1012.9
20260505185011 14 132 3.2 4.8 0.00 0.00 0.00 62 1012.8
20260505184505 14 104 3.2 4.8 0.00 0.00 0.00 62 1012.8
20260505184011 14 122 3.2 4.8 0.00 0.00 0.00 62 1012.7
20260505183505 14 134 3.2 4.8 0.00 0.00 0.00 62 1012.7
20260505183011 14 104 3.2 4.8 0.00 0.00 0.00 62 1012.6
20260505182504 14 111 0.0 4.8 0.00 0.00 0.00 62 1012.6
20260505182012 15 103 4.8 9.7 0.00 0.00 0.00 60 1012.6
20260505181505 15 171 3.2 4.8 0.00 0.00 0.00 60 1012.6
20260505181011 15 151 3.2 8.0 0.00 0.00 0.00 60 1012.6
20260505180004 15 94 3.2 4.8 0.00 0.00 0.00 60 1012.7
20260505175505 15 121 3.2 4.8 0.00 0.00 0.00 60 1012.7
20260505174504 15 152 4.8 9.7 0.00 0.00 0.00 59 1012.7
20260505174011 15 131 4.8 8.0 0.00 0.00 0.00 58 1012.6
20260505173011 15 121 4.8 11.3 0.00 0.00 0.00 57 1012.6
20260505172507 15 126 4.8 9.7 0.00 0.00 0.00 57 1012.6
20260505172011 15 160 1.6 9.7 0.00 0.00 0.00 56 1012.7
20260505171505 15 142 8.0 14.5 0.00 0.00 0.00 56 1012.6
20260505171011 15 134 6.4 12.9 0.00 0.00 0.00 56 1012.6
20260505170505 15 133 4.8 12.9 0.00 0.00 0.00 56 1012.7
20260505170004 15 137 4.8 14.5 0.00 0.00 0.00 55 1012.7
20260505165504 15 129 6.4 11.3 0.00 0.00 0.00 55 1012.7
20260505165011 15 135 8.0 14.5 0.00 0.00 0.00 55 1012.7
20260505164011 15 142 4.8 16.1 0.00 0.00 0.00 54 1012.7
20260505163505 15 187 8.0 19.3 0.00 0.00 0.00 54 1012.6
20260505163012 15 154 4.8 12.9 0.00 0.00 0.00 54 1012.7
20260505162504 16 158 4.8 11.3 0.00 0.00 0.00 54 1012.7
20260505162011 16 134 6.4 12.9 0.00 0.00 0.00 53 1012.6
20260505161505 16 103 9.7 16.1 0.00 0.00 0.00 52 1012.6
20260505161012 16 106 8.0 14.5 0.00 0.00 0.00 52 1012.6
20260505160505 16 103 4.8 11.3 0.00 0.00 0.00 53 1012.6
20260505152504 16 87 3.2 4.8 0.00 0.00 0.00 53 1012.7
20260505152011 16 107 3.2 9.7 0.00 0.00 0.00 52 1012.7
20260505151504 16 105 3.2 4.8 0.00 0.00 0.00 52 1012.7
20260505151011 16 136 6.4 11.3 0.00 0.00 0.00 51 1012.8
20260505150504 16 130 1.6 4.8 0.00 0.00 0.00 51 1012.8
20260505140504 17 24 1.6 4.8 0.00 0.00 0.00 50 1013.0
20260505124506 16 116 3.2 4.8 0.00 0.00 0.00 53 1013.4
20260505124013 16 86 8.0 14.5 0.00 0.00 0.00 52 1013.4
20260505123509 16 81 3.2 8.0 0.00 0.00 0.00 54 1013.4
20260505123012 16 138 3.2 8.0 0.00 0.00 0.00 54 1013.4
20260505122506 16 54 4.8 14.5 0.00 0.00 0.00 54 1013.4
20260505122013 17 89 8.0 19.3 0.00 0.00 0.00 52 1013.3
20260505121505 17 99 6.4 14.5 0.00 0.00 0.00 52 1013.3
20260505120506 17 63 8.0 19.3 0.00 0.00 0.00 53 1013.3
20260505120006 17 106 4.8 12.9 0.00 0.00 0.00 51 1013.4
20260505115506 16 132 3.2 14.5 0.00 0.00 0.00 53 1013.5
20260505115013 16 88 12.9 19.3 0.00 0.00 0.00 52 1013.5
20260505114505 16 124 4.8 11.3 0.00 0.00 0.00 54 1013.5
20260505114012 16 74 6.4 16.1 0.00 0.00 0.00 57 1013.5
20260505113506 16 60 4.8 16.1 0.00 0.00 0.00 57 1013.5
20260505113013 16 112 11.3 19.3 0.00 0.00 0.00 56 1013.5
20260505112506 16 82 3.2 11.3 0.00 0.00 0.00 57 1013.5
20260505111506 16 131 9.7 19.3 0.00 0.00 0.00 56 1013.7
20260505111012 16 54 3.2 9.7 0.00 0.00 0.00 58 1013.6
20260505110506 16 33 4.8 19.3 0.00 0.00 0.00 58 1013.6
20260505102013 15 83 8.0 19.3 0.00 0.00 0.00 60 1014.1
20260505101506 15 93 4.8 14.5 0.00 0.00 0.00 63 1014.1
20260505101013 15 94 1.6 8.0 0.00 0.00 0.00 63 1014.1
20260505100506 15 78 4.8 12.9 0.00 0.00 0.00 63 1014.1
20260505100006 15 41 4.8 14.5 0.00 0.00 0.00 63 1014.1
20260505095505 14 68 8.0 11.3 0.00 0.00 0.00 63 1014.1
20260505095012 14 54 4.8 14.5 0.00 0.00 0.00 63 1014.2
20260505094505 14 51 6.4 14.5 0.00 0.00 0.00 64 1014.2
20260505093506 14 50 3.2 11.3 0.00 0.00 0.00 68 1014.2
20260505093012 13 59 6.4 12.9 0.00 0.00 0.00 70 1014.2
20260505092506 13 38 4.8 9.7 0.00 0.00 0.00 71 1014.2
20260505092012 13 37 4.8 9.7 0.00 0.00 0.00 72 1014.2
20260505091505 13 111 4.8 12.9 0.00 0.00 0.00 73 1014.3
20260505091013 13 88 4.8 14.5 0.00 0.00 0.00 75 1014.4
20260505090506 12 59 4.8 9.7 0.00 0.00 0.00 75 1014.4
20260505090005 12 47 4.8 9.7 0.00 0.00 0.00 75 1014.4
20260505085505 12 64 3.2 9.7 0.00 0.00 0.00 77 1014.4
20260505085013 12 34 3.2 8.0 0.00 0.00 0.00 77 1014.5
20260505084505 12 25 4.8 11.3 0.00 0.00 0.00 77 1014.5
20260505084012 12 19 3.2 4.8 0.00 0.00 0.00 78 1014.5
20260505083506 12 55 4.8 14.5 0.00 0.00 0.00 77 1014.5
20260505083013 12 41 6.4 14.5 0.00 0.00 0.00 77 1014.6
20260505082505 12 61 1.6 4.8 0.00 0.00 0.00 78 1014.5
20260505082012 12 59 4.8 11.3 0.00 0.00 0.00 79 1014.5
20260505081012 12 82 4.8 14.5 0.00 0.00 0.00 78 1014.5
20260505080506 12 51 4.8 14.5 0.00 0.00 0.00 78 1014.4
20260505075013 11 62 6.4 16.1 0.00 0.00 0.00 79 1014.4
20260505074505 11 64 6.4 12.9 0.00 0.00 0.00 80 1014.3
20260505074012 11 100 4.8 12.9 0.00 0.00 0.00 81 1014.4
20260505073506 11 65 4.8 14.5 0.00 0.00 0.00 81 1014.4
20260505072506 11 69 3.2 9.7 0.00 0.00 0.00 81 1014.5
20260505071013 11 49 3.2 12.9 0.00 0.00 0.00 82 1014.5
20260505065508 11 60 3.2 11.3 0.00 0.00 0.00 82 1014.5
20260505065012 11 58 3.2 4.8 0.00 0.00 0.00 83 1014.6
20260505064505 11 57 1.6 4.8 0.00 0.00 0.00 83 1014.6
20260505063505 11 23 1.6 4.8 0.00 0.00 0.00 84 1014.6
20260505063012 11 39 1.6 8.0 0.00 0.00 0.00 84 1014.7
20260505062506 11 357 3.2 4.8 0.00 0.00 0.00 84 1014.6
20260505062013 11 46 3.2 4.8 0.00 0.00 0.00 84 1014.7
20260505061505 11 67 3.2 8.0 0.00 0.00 0.00 84 1014.6
20260505061013 11 71 0.0 9.7 0.00 0.00 0.00 84 1014.6
20260505060506 10 45 1.6 4.8 0.00 0.00 0.00 85 1014.6
20260505060006 10 75 0.0 3.2 0.00 0.00 0.00 85 1014.6
20260505055506 10 75 1.6 3.2 0.00 0.00 0.00 85 1014.6
20260505055012 10 65 1.6 4.8 0.00 0.00 0.00 85 1014.6
20260505054505 10 44 0.0 4.8 0.00 0.00 0.00 85 1014.7
20260505053505 10 57 1.6 4.8 0.00 0.00 0.00 86 1014.8
20260505052505 10 83 1.6 3.2 0.00 0.00 0.00 86 1014.8
20260505052012 10 83 0.0 1.6 0.00 0.00 0.00 86 1014.8
20260505051505 10 85 1.6 3.2 0.00 0.00 0.00 86 1014.9
20260505051012 10 67 0.0 1.6 0.00 0.00 0.00 86 1014.9
20260505050506 10 67 0.0 3.2 0.00 0.00 0.00 86 1014.9
20260505041505 10 84 1.6 4.8 0.00 0.00 0.00 85 1014.8
20260505041012 10 74 1.6 4.8 0.00 0.00 0.00 85 1014.8
20260505040506 10 84 3.2 4.8 0.00 0.00 0.00 85 1014.8
20260505040005 10 96 1.6 9.7 0.00 0.00 0.00 85 1014.8
20260505035012 10 96 4.8 11.3 0.00 0.00 0.00 85 1014.8
20260505034505 10 102 8.0 12.9 0.00 0.00 0.00 86 1014.9
20260505034012 11 92 3.2 11.3 0.00 0.00 0.00 86 1014.8
20260505033506 11 87 1.6 9.7 0.00 0.00 0.00 86 1014.8
20260505033012 11 72 1.6 12.9 0.00 0.00 0.00 86 1014.8
20260505032505 11 95 4.8 12.9 0.00 0.00 0.00 86 1014.9
20260505032011 11 72 1.6 11.3 0.00 0.00 0.00 86 1014.8
20260505031505 11 90 3.2 9.7 0.00 0.00 0.00 86 1014.9
20260505031012 11 104 6.4 12.9 0.00 0.00 0.00 86 1014.9
20260505030506 11 88 4.8 9.7 0.00 0.00 0.00 86 1014.9
20260505030005 11 107 3.2 9.7 0.00 0.00 0.00 86 1014.9
20260505024505 11 94 1.6 4.8 0.00 0.00 0.00 87 1014.9
20260505024012 11 113 1.6 8.0 0.00 0.00 0.00 86 1014.9
20260505023506 11 116 3.2 12.9 0.00 0.00 0.00 86 1014.9
20260505023012 11 110 3.2 11.3 0.00 0.00 0.00 86 1015.0
20260505022505 11 111 4.8 12.9 0.00 0.00 0.00 86 1015.1
20260505022012 11 79 4.8 11.3 0.00 0.00 0.00 87 1015.0
20260505021012 11 43 1.6 8.0 0.00 0.00 0.00 87 1014.9
20260505020505 11 41 1.6 8.0 0.00 0.00 0.00 88 1014.9
20260505020004 11 62 1.6 4.8 0.00 0.00 0.00 88 1015.0
20260505015505 11 79 4.8 11.3 0.00 0.00 0.00 88 1014.9
20260505015012 11 85 6.4 12.9 0.00 0.00 0.00 88 1014.9
20260505014505 11 87 4.8 14.5 0.00 0.00 0.00 88 1015.0